Vorticity
nan nan nan nan nan nan nan nan nan nan nan nan nan nan nan nan nan nan nan nan nan nan nan nan nan nan nan nan nan nan nan nan nan nan nan nan nan nan nan nan nan nan nan
nan 10 9 8 10 8 8 9 10 8 7 9 9 9 8 9 10 10 10 10 9 7 8 9 8 9 9 8 9 10 9 8 7 7 8 10 8 9 9 10 12 11 nan
nan 9 9 9 9 9 9 9 9 10 8 8 8 8 9 10 10 10 10 9 9 8 9 8 8 8 8 9 9 9 9 10 8 9 8 9 10 9 10 10 9 11 nan
nan 9 8 9 9 10 10 10 9 9 8 8 8 9 9 9 9 9 9 8 9 9 10 9 10 8 7 7 9 8 9 9 10 9 8 9 10 9 9 9 10 10 nan
nan 9 9 9 10 10 10 10 10 9 8 9 8 8 9 8 9 9 10 10 9 9 10 11 12 11 10 9 9 9 9 9 9 9 8 8 6 9 9 9 10 9 nan
nan 9 10 11 10 9 9 10 9 9 10 9 9 9 7 11 14 12 10 11 11 10 9 10 11 12 14 11 12 14 11 9 7 8 8 8 8 9 11 9 8 7 nan
nan 10 11 10 9 10 10 9 9 9 9 9 9 9 10 14 16 13 6 6 10 11 13 12 12 10 9 9 10 14 15 13 10 9 12 9 11 10 9 10 11 9 nan
nan 9 10 9 9 10 10 8 9 11 10 9 11 10 10 14 12 7 6 5 9 10 11 11 10 9 9 7 9 10 10 10 12 11 10 9 9 10 11 11 10 9 nan
nan 9 10 10 9 9 9 9 9 10 10 10 11 13 10 12 12 6 6 8 11 11 8 7 7 7 7 8 9 8 10 9 11 10 11 11 10 10 11 12 11 9 nan
nan 10 11 12 11 9 9 9 9 11 10 11 12 13 11 13 14 9 4 8 10 9 9 8 7 8 9 9 9 9 9 11 8 11 13 12 11 11 12 9 9 11 nan
nan 13 12 12 10 10 10 11 10 11 11 11 11 12 14 14 16 15 12 10 11 10 8 10 10 10 10 11 9 8 7 7 11 13 11 11 12 12 13 13 10 9 nan
nan 10 11 11 11 14 11 9 11 11 10 10 10 9 12 15 14 13 12 12 11 10 10 9 8 10 9 10 11 11 10 10 13 12 11 10 11 12 12 13 13 11 nan
nan 14 14 15 14 12 12 9 10 11 11 9 9 9 9 10 11 10 8 10 9 9 10 9 10 11 11 13 12 12 14 13 11 10 10 12 12 11 11 13 14 14 nan
nan 12 12 12 13 15 16 17 15 9 8 11 10 9 11 11 9 7 8 8 9 9 10 11 12 13 13 11 13 14 12 12 12 11 11 11 11 12 14 12 13 14 nan
nan 10 10 10 11 10 10 10 10 24 11 12 10 12 9 9 13 13 11 10 10 9 10 9 10 12 12 12 11 11 11 11 13 13 11 11 12 13 15 14 13 12 nan
nan 8 10 11 11 8 6 6 2 5 18 26 19 10 7 16 20 12 10 10 11 8 7 11 9 9 10 10 10 11 10 10 11 12 12 12 13 14 13 13 13 14 nan
nan 9 12 12 8 9 11 11 5 1 18 15 16 12 16 17 11 9 8 7 7 8 7 10 11 10 10 10 11 10 10 10 11 12 12 12 12 12 12 13 13 12 nan
nan 11 10 12 11 10 11 14 13 8 10 3 10 15 17 14 8 8 6 3 6 11 10 8 10 11 11 11 11 10 10 11 12 12 11 11 12 12 12 11 12 13 nan
nan 10 10 10 11 9 9 12 14 10 11 7 7 8 10 11 9 8 6 6 9 9 10 10 10 10 11 11 11 11 11 12 11 11 11 11 12 12 11 11 12 12 nan
nan 11 10 10 11 10 9 9 10 12 11 12 8 9 7 7 8 7 8 9 8 8 9 10 12 12 11 10 11 11 11 11 12 12 11 11 12 12 12 11 11 10 nan
nan 15 10 8 11 11 11 11 11 10 11 12 9 12 11 7 9 9 9 8 9 10 10 11 10 11 11 11 11 11 11 11 11 11 12 12 11 11 10 12 12 12 nan
nan 12 10 10 11 12 11 11 12 11 11 10 8 14 11 6 10 10 9 9 10 10 11 11 11 11 11 11 11 11 11 10 11 12 12 11 11 11 11 11 11 11 nan
nan 11 10 10 11 12 12 12 11 11 11 10 10 11 10 11 10 10 10 10 10 10 12 12 10 10 11 11 11 11 10 11 12 12 12 11 11 11 11 11 11 11 nan
nan 12 10 10 12 11 11 11 12 12 11 11 11 11 11 12 11 10 9 10 10 11 12 12 12 10 9 9 10 9 9 11 12 13 11 9 10 10 9 10 10 10 nan
nan 12 11 11 11 9 11 12 11 12 11 11 11 12 11 11 11 11 11 11 11 12 12 12 12 12 11 9 8 9 12 10 9 9 9 11 11 9 7 8 9 9 nan
nan nan nan nan nan nan nan nan nan nan nan nan nan nan nan nan nan nan nan nan nan nan nan nan nan nan nan nan nan nan nan nan nan nan nan nan nan nan nan nan nan nan nan
CAPE
189 155 123 58 28 23 0 0 5 5 8 19 55 249 376 488 833 1175 641 500 777 672 817 1079 1192 1000 945 833 622 771 708 303 423 641 373 615 807 1293 1417 1446 1275 1077 823
274 293 237 193 162 97 56 15 10 47 58 59 5 17 88 227 303 769 1199 1343 927 1158 1161 796 997 895 1097 785 610 782 786 708 602 1021 767 740 992 1153 1207 1320 1386 1336 1438
459 391 275 176 267 291 256 168 59 62 86 221 336 467 648 683 791 948 983 997 1007 1197 1258 938 1046 777 913 968 992 914 669 929 757 745 1068 717 845 834 1098 996 1106 1170 1038
578 543 473 276 263 322 382 400 440 296 198 145 255 467 566 658 592 633 883 959 936 1003 1112 1061 1038 726 921 955 857 901 810 649 713 779 936 943 861 838 669 924 1095 758 809
827 744 671 514 362 362 290 274 397 589 722 793 690 509 532 644 712 692 621 721 821 840 900 986 993 843 544 568 1033 1248 959 800 935 1114 1060 857 816 822 952 920 840 601 425
888 994 943 800 590 494 458 446 384 310 371 415 606 720 594 584 439 424 503 910 978 1052 1217 1293 1035 410 520 169 0 1 210 872 1087 871 1053 817 691 779 778 821 635 435 840
975 955 1025 945 908 806 696 567 584 626 562 413 351 312 419 410 131 98 199 294 306 345 351 339 114 2 0 0 0 0 0 0 0 247 334 606 720 799 416 354 372 666 988
1155 1049 1011 1035 1031 1028 942 816 737 663 665 707 657 643 536 50 0 24 64 39 0 0 0 0 0 0 0 0 0 0 0 0 0 0 0 0 2 2 32 125 126 137 147
1321 1223 1046 1069 1087 984 1039 1000 921 796 845 810 857 946 422 120 0 0 0 0 0 0 0 0 0 0 0 0 0 0 0 0 0 0 0 0 0 0 0 1 3 2 23
1385 1338 1273 1130 1128 1054 1024 1016 1018 966 1027 1200 1193 1210 613 429 0 0 0 4 0 1 2 1 0 2 0 0 0 0 1 0 0 0 0 0 0 0 0 1 8 16 27
1311 1430 1392 1334 1266 1243 1096 924 1059 1157 1274 1243 1384 936 560 313 3 0 1 0 0 0 0 0 0 0 0 0 0 0 1 0 0 2 1 1 1 2 1 1 0 0 32
913 1151 1248 1278 1294 1196 1341 1264 1375 1419 1435 1223 894 250 23 2 1 0 0 0 0 0 0 0 0 0 0 0 0 0 0 0 1 2 1 1 2 5 1 1 2 8 10
1253 996 1077 983 1290 1290 1380 1211 1299 1251 1108 486 258 9 1 2 1 0 0 0 0 0 0 0 0 0 0 0 0 0 0 2 2 2 2 2 2 1 6 5 1 2 20
666 542 291 329 314 501 699 611 856 878 600 263 1 1 2 2 0 0 0 0 0 0 0 0 0 0 0 0 0 0 1 3 4 3 1 4 1 6 10 16 21 22 1
73 119 79 31 22 0 0 3 2 3 72 31 1 0 1 0 0 0 0 0 0 0 0 0 0 1 3 3 1 1 1 3 4 3 4 3 2 2 4 3 4 1 0
147 12 1 1 1 0 0 0 0 0 1 0 0 0 0 0 0 0 0 0 0 1 0 0 0 1 3 4 4 3 3 3 3 6 5 2 3 1 1 1 0 1 1
372 325 2 1 1 1 0 0 0 1 2 0 0 0 0 0 0 0 0 0 0 0 0 0 0 3 3 2 4 4 4 3 3 3 3 1 1 1 1 1 1 1 1
111 91 2 2 2 1 0 0 0 0 0 0 0 0 0 0 0 0 0 0 0 0 0 0 0 0 2 4 3 4 2 2 3 3 1 1 1 1 1 1 2 2 2
341 191 1 2 1 0 0 0 0 0 0 0 0 0 0 0 0 0 0 0 0 0 0 0 0 0 0 1 3 4 2 2 1 2 3 1 1 1 1 1 0 0 0
400 168 3 1 2 1 0 0 0 0 0 0 0 0 0 0 0 0 0 0 0 0 0 0 0 0 0 0 0 0 0 0 0 0 0 0 0 0 1 1 1 1 1
381 71 0 2 1 1 0 0 0 0 0 0 0 0 0 0 0 0 0 0 0 0 0 0 0 0 0 0 0 0 0 0 0 0 0 0 1 1 0 0 0 0 0
250 42 2 2 3 2 0 0 0 0 0 0 0 0 0 0 0 0 0 0 0 0 0 0 0 0 0 0 0 0 0 0 0 0 0 0 0 0 0 0 0 2 2
255 64 3 2 3 0 1 0 0 0 0 0 0 0 0 0 0 0 0 0 0 0 0 0 0 0 0 0 0 0 0 0 0 0 0 0 0 0 0 0 0 0 0
749 270 94 14 3 3 1 0 0 0 0 0 0 0 0 0 0 0 0 0 0 0 0 0 0 0 0 0 0 0 0 0 0 0 0 0 0 0 0 0 0 0 0
727 588 392 175 4 2 0 0 0 0 0 0 0 0 0 0 0 0 0 0 0 0 0 0 0 0 0 0 0 0 0 0 0 0 0 0 0 0 0 0 0 0 0
727 543 397 257 31 3 0 0 0 0 0 0 0 0 0 0 0 0 0 0 0 0 0 0 0 0 0 0 0 0 0 0 0 0 0 0 0 0 0 0 0 0 0